Weather History for Homestead AFB, FL

Change the Weather History Date:

Thursday, December 6, 2012

  Actual Average Record
Temperature  
Mean Temperature 72 °F -  
Max Temperature 79 °F 79 °F 88 °F (1983)
Min Temperature 64 °F 59 °F 36 °F (1968)
Cooling Degree Days 6    
Growing Degree Days 22 (Base 50)    
Moisture  
Dew Point 65 °F    
Average Humidity 80    
Maximum Humidity 93    
Minimum Humidity 61    
Precipitation  
Precipitation 0.00 in - - ()
Sea Level Pressure  
Sea Level Pressure 29.98 in    
Wind  
Wind Speed 4 mph (NNE)    
Max Wind Speed 9 mph    
Max Gust Speed -    
Visibility 10 miles    
Events      
Averages and records for this station are not official NWS values.
T = Trace of Precipitation, MM = Missing Value Source: NWS Daily Summary

Daily Weather History Graph

Daily Weather History Graph

Search for Another Location

Airport:

Trip Planner

Search our weather history database for the weather conditions in past years. The results will help you decide how hot, cold, wet, or windy it might be!

Date:

Astronomy

Dec. 06, 2012 Rise Set
Actual Time 6:54 AM EST 5:31 PM EST
Civil Twilight 6:29 AM EST 5:56 PM EST
Nautical Twilight 6:00 AM EST 6:24 PM EST
Astronomical Twilight 5:32 AM EST 6:52 PM EST
Moon No Moon Rise 12:20 PM EST (12/6)
Length of Visible Light 11h 26m
Length of Day
10h 36m
Waning Gibbous, 49% of the Moon is Illuminated
Dec 6
Waning Gibbous
Dec 13
New
Dec 20
First Quarter
Dec 28
Full
Jan 4
Last Quarter

Hourly Weather History & Observations

Time (EST) Temp. Dew Point Humidity Pressure Visibility Wind Dir Wind Speed Gust Speed Precip Events Conditions
12:55 AM 66.9 °F 63.1 °F 88% 30.02 in 10.0 mi NNE 4.6 mph - N/A   Mostly Cloudy
1:55 AM 66.2 °F 62.8 °F 89% 30.01 in 10.0 mi Calm Calm - N/A   Clear
2:55 AM 65.3 °F 62.2 °F 90% 30.00 in 10.0 mi NNW 5.8 mph - N/A   Clear
3:55 AM 65.1 °F 62.4 °F 91% 29.99 in 10.0 mi NNW 4.6 mph - N/A   Clear
4:55 AM 64.2 °F 61.5 °F 91% 29.97 in 10.0 mi NNE 4.6 mph - N/A   Clear
5:55 AM 64.6 °F 62.4 °F 93% 29.98 in 10.0 mi Calm Calm - N/A   Clear
8:55 AM 69.6 °F 66.6 °F 90% 30.01 in 10.0 mi NNE 4.6 mph - N/A   Clear
9:41 AM 71.6 °F 68.0 °F 88% 30.01 in 10.0 mi North 4.6 mph - N/A   Light Drizzle
9:44 AM 71.6 °F 68.0 °F 88% 30.01 in 10.0 mi North 3.5 mph - N/A   Clear
9:55 AM 72.0 °F 67.6 °F 86% 30.02 in 10.0 mi NE 3.5 mph - 0.00 in   Clear
10:55 AM 77.0 °F 67.8 °F 73% 30.01 in 10.0 mi Variable 3.5 mph - N/A   Partly Cloudy
11:23 AM 78.8 °F 66.2 °F 65% 29.99 in 10.0 mi Variable 4.6 mph - N/A   Mostly Cloudy
11:29 AM 78.8 °F 66.2 °F 65% 29.99 in 10.0 mi Variable 3.5 mph - N/A   Scattered Clouds
11:55 AM 78.8 °F 65.3 °F 63% 29.99 in 10.0 mi ESE 6.9 mph - N/A   Partly Cloudy
12:55 PM 79.0 °F 64.4 °F 61% 29.96 in 10.0 mi Variable 5.8 mph - N/A   Clear
1:55 PM 78.4 °F 65.5 °F 64% 29.94 in 10.0 mi ESE 6.9 mph - N/A   Clear
2:55 PM 78.6 °F 66.2 °F 66% 29.93 in 10.0 mi East 6.9 mph - N/A   Clear
3:55 PM 78.3 °F 65.5 °F 65% 29.93 in 10.0 mi East 9.2 mph - N/A   Partly Cloudy
4:55 PM 76.6 °F 65.3 °F 68% 29.94 in 10.0 mi East 6.9 mph - N/A   Clear
5:55 PM 72.9 °F 65.8 °F 79% 29.95 in 10.0 mi Calm Calm - N/A   Clear
6:55 PM 71.2 °F 66.0 °F 84% 29.95 in 10.0 mi Calm Calm - N/A   Partly Cloudy
7:55 PM 69.8 °F 65.1 °F 85% 29.97 in 10.0 mi Calm Calm - N/A   Clear
8:55 PM 69.4 °F 64.6 °F 84% 29.98 in 10.0 mi NNW 3.5 mph - N/A   Clear
9:55 PM 68.5 °F 64.9 °F 88% 29.97 in 10.0 mi Calm Calm - N/A   Clear
10:55 PM 66.6 °F 63.7 °F 90% 29.96 in 10.0 mi NNW 4.6 mph - N/A   Clear
11:55 PM 66.4 °F 63.7 °F 91% 29.95 in 10.0 mi Calm Calm - N/A   Clear